Weather History for Lafayette, LA

Change the Weather History Date:

Wednesday, October 24, 2012

  Actual Average Record
Temperature  
Mean Temperature 76 °F 68 °F  
Max Temperature 87 °F 79 °F 93 °F (1919)
Min Temperature 65 °F 57 °F 31 °F (1917)
Degree Days  
Heating Degree Days 0 2  
Month to date heating degree days 8 18  
Since 1 July heating degree days 8 19  
Cooling Degree Days 11 5  
Month to date cooling degree days 162 172  
Year to date cooling degree days 3034 2860  
Growing Degree Days 26 (Base 50)    
Moisture  
Dew Point 65 °F    
Average Humidity 73    
Maximum Humidity 100    
Minimum Humidity 45    
Precipitation  
Precipitation 0.00 in 0.18 in 1.65 in (1996)
Month to date precipitation 0.34 4.05  
Year to date precipitation 57.99 49.39  
Snow  
Snow 0.00 in 0.00 in 0.00 in ()
Month to date snowfall 0.0 0.0  
Since 1 July snowfall 0.0 0.0  
Since 1 September snowfall 0.0 0.0  
Snow Depth 0.00 in    
Sea Level Pressure  
Sea Level Pressure 30.01 in    
Wind  
Wind Speed 2 mph (ESE)    
Max Wind Speed 9 mph    
Max Gust Speed 13 mph    
Visibility 5 miles    
Events Fog    
T = Trace of Precipitation, MM = Missing Value Source: NWS Daily Summary

Daily Weather History Graph

Daily Weather History Graph

Search for Another Location

Airport:

Trip Planner

Search our weather history database for the weather conditions in past years. The results will help you decide how hot, cold, wet, or windy it might be!

Date:

Astronomy

Oct. 24, 2012 Rise Set
Actual Time 7:16 AM CDT 6:27 PM CDT
Civil Twilight 6:52 AM CDT 6:51 PM CDT
Nautical Twilight 6:23 AM CDT 7:19 PM CDT
Astronomical Twilight 5:56 AM CDT 7:47 PM CDT
Moon 3:25 PM CDT (10/24) 2:32 AM CDT (10/24)
Length of Visible Light 11h 59m
Length of Day
11h 10m
Waxing Gibbous, 76% of the Moon is Illuminated
Oct 24
Waxing Gibbous
Oct 29
Full
Nov 6
Last Quarter
Nov 13
New
Nov 20
First Quarter

Hourly Weather History & Observations

Time (CDT) Temp. Heat Index Dew Point Humidity Pressure Visibility Wind Dir Wind Speed Gust Speed Precip Events Conditions
1:44 AM 66.2 °F - 64.4 °F 94% 30.02 in 2.0 mi Calm Calm - N/A   Clear
1:53 AM 66.0 °F - 64.9 °F 96% 30.02 in 4.0 mi Calm Calm - N/A   Clear
2:15 AM 66.2 °F - 64.4 °F 94% 30.02 in 1.8 mi Calm Calm - N/A   Clear
2:19 AM 66.2 °F - 64.4 °F 94% 30.02 in 0.8 mi Calm Calm - N/A   Mist
2:34 AM 66.2 °F - 64.4 °F 94% 30.02 in 2.0 mi Calm Calm - N/A   Scattered Clouds
2:42 AM 66.2 °F - 64.4 °F 94% 30.01 in 4.0 mi Calm Calm - N/A   Partly Cloudy
2:53 AM 66.0 °F - 64.0 °F 93% 30.01 in 5.0 mi Calm Calm - N/A   Clear
3:08 AM 66.2 °F - 64.4 °F 94% 30.01 in 2.0 mi Calm Calm - N/A   Scattered Clouds
3:20 AM 66.2 °F - 64.4 °F 94% 30.01 in 3.0 mi Calm Calm - N/A   Scattered Clouds
3:28 AM 66.2 °F - 64.4 °F 94% 30.01 in 2.5 mi Calm Calm - N/A   Mostly Cloudy
3:37 AM 66.2 °F - 64.4 °F 94% 30.01 in 1.8 mi Calm Calm - N/A   Mostly Cloudy
3:47 AM 66.2 °F - 64.4 °F 94% 30.00 in 0.8 mi Calm Calm - N/A   Mist
3:53 AM 66.9 °F - 64.9 °F 93% 30.00 in 0.8 mi Calm Calm - N/A   Mist
4:05 AM 66.2 °F - 64.4 °F 94% 30.00 in 0.8 mi Calm Calm - N/A   Mist
4:53 AM 66.9 °F - 64.9 °F 93% 30.01 in 0.5 mi Calm Calm - N/A Fog Fog
5:13 AM 66.2 °F - 66.2 °F 100% 30.02 in 0.2 mi Calm Calm - N/A Fog Fog
5:53 AM 66.9 °F - 66.0 °F 97% 30.03 in 0.2 mi Calm Calm - N/A Fog Fog
5:57 AM 68.0 °F - 66.2 °F 94% 30.03 in 0.5 mi Calm Calm - N/A Fog Fog
6:11 AM 68.0 °F - 66.2 °F 94% 30.03 in 1.5 mi East 3.5 mph - N/A   Overcast
6:19 AM 68.0 °F - 66.2 °F 94% 30.04 in 3.0 mi Calm Calm - N/A   Overcast
6:43 AM 68.0 °F - 66.2 °F 94% 30.04 in 5.0 mi Calm Calm - N/A   Mostly Cloudy
6:53 AM 68.0 °F - 66.9 °F 96% 30.04 in 6.0 mi Calm Calm - N/A   Mostly Cloudy
7:53 AM 68.0 °F - 66.9 °F 96% 30.05 in 5.0 mi East 3.5 mph - N/A   Mostly Cloudy
8:24 AM 69.8 °F - 68.0 °F 94% 30.06 in 6.0 mi Calm Calm - N/A   Overcast
8:53 AM 71.1 °F - 68.0 °F 90% 30.07 in 8.0 mi Calm Calm - N/A   Mostly Cloudy
9:53 AM 75.0 °F - 69.1 °F 82% 30.07 in 10.0 mi East 5.8 mph - N/A   Clear
10:53 AM 79.0 °F - 68.0 °F 69% 30.06 in 10.0 mi ESE 4.6 mph - N/A   Clear
11:53 AM 82.0 °F 83.4 °F 64.0 °F 54% 30.05 in 10.0 mi SE 6.9 mph - N/A   Clear
12:53 PM 84.0 °F 85.8 °F 64.9 °F 53% 30.03 in 10.0 mi Variable 4.6 mph - N/A   Partly Cloudy
1:53 PM 82.9 °F 84.4 °F 64.0 °F 53% 30.00 in 10.0 mi East 4.6 mph - N/A   Scattered Clouds
2:53 PM 86.0 °F 86.3 °F 62.1 °F 44% 29.98 in 10.0 mi Variable 3.5 mph - N/A   Scattered Clouds
3:53 PM 84.2 °F 85.0 °F 62.6 °F 48% 29.97 in 10.0 mi East 3.5 mph - N/A   Scattered Clouds
4:53 PM 82.9 °F 84.4 °F 64.0 °F 53% 29.96 in 10.0 mi Calm Calm - N/A   Clear
5:53 PM 78.1 °F - 64.9 °F 64% 29.96 in 10.0 mi Calm Calm - N/A   Clear
6:53 PM 73.9 °F - 66.9 °F 79% 29.97 in 10.0 mi South 3.5 mph - N/A   Clear
7:53 PM 73.0 °F - 66.9 °F 81% 29.98 in 10.0 mi Calm Calm - N/A   Partly Cloudy
8:53 PM 71.1 °F - 66.9 °F 87% 29.99 in 10.0 mi Calm Calm - N/A   Clear
9:53 PM 72.0 °F - 66.0 °F 81% 29.99 in 10.0 mi Calm Calm - N/A   Partly Cloudy
10:53 PM 70.0 °F - 66.0 °F 87% 29.99 in 10.0 mi Calm Calm - N/A   Clear
11:53 PM 68.0 °F - 64.9 °F 90% 29.99 in 10.0 mi Calm Calm - N/A   Clear